Wind_Speed
24 23 23 24 25 25 24 24 23 23 22 22 22 21 21 20 20 20 20 20 22 21 22 23 21 20 22 24 20 18 18 17 16 15 14 13 11 10 11 11 10 10 8 11 14 15 14
22 21 21 20 20 20 19 19 19 19 19 20 19 19 19 20 21 21 22 23 24 24 23 22 22 24 23 21 17 15 18 16 16 14 14 12 10 8 8 7 6 6 6 11 13 13 14
20 19 17 16 16 16 17 16 16 16 17 18 19 20 21 22 23 23 23 25 23 23 24 27 26 21 18 19 20 20 18 18 17 18 16 13 11 10 5 4 5 5 7 8 11 12 14
19 19 16 14 13 13 13 14 15 15 16 18 19 20 22 23 22 24 24 22 22 26 27 24 21 20 21 20 20 20 19 20 19 18 16 14 14 15 8 3 4 4 4 1 7 9 12
19 18 18 16 14 13 13 13 15 17 17 19 22 23 23 22 24 23 21 23 26 27 25 23 21 21 20 20 17 18 18 16 16 16 14 13 14 14 12 7 4 8 3 2 5 8 11
18 18 17 17 16 16 16 15 17 19 21 22 22 22 23 24 22 20 22 25 25 23 23 22 20 19 17 19 17 16 16 12 13 15 13 10 9 9 11 10 10 6 3 5 7 6 9
15 16 17 17 17 17 17 16 19 21 21 21 22 22 22 21 20 22 24 22 21 19 21 20 19 18 16 14 14 16 14 12 8 8 9 11 14 13 12 12 12 11 8 7 9 8 8
15 14 15 14 15 16 16 17 19 21 21 22 21 21 19 18 17 20 24 22 17 17 19 18 16 17 16 13 12 13 12 7 6 11 11 11 12 12 12 13 11 11 10 10 11 12 12
13 13 14 14 13 13 16 15 16 19 21 21 20 18 16 15 17 17 17 18 17 15 15 15 14 13 13 12 10 9 5 5 7 8 10 12 13 13 13 11 12 12 11 10 11 13 13
8 10 11 12 13 11 11 14 14 16 18 19 18 16 14 13 14 18 15 13 11 14 12 12 11 10 9 8 7 5 5 6 9 11 11 12 12 11 10 12 12 12 12 12 13 13 12
5 6 7 9 10 11 9 9 12 14 15 15 16 14 12 12 13 16 16 12 9 10 11 9 7 6 5 3 2 3 5 8 10 11 12 12 12 13 14 14 15 15 14 13 11 13 13
2 3 4 5 7 8 9 7 8 10 13 14 14 13 10 9 11 12 15 13 10 11 9 8 6 4 3 3 3 4 7 9 11 13 13 13 13 12 12 14 16 17 17 15 14 14 13
1 0 2 2 4 5 6 7 6 7 10 11 13 12 11 10 9 10 12 13 11 9 8 10 8 7 6 7 7 8 11 11 12 12 10 12 15 15 15 15 16 18 19 18 15 13 13
3 3 2 2 3 3 2 3 4 4 5 9 11 12 12 11 10 10 11 12 13 9 8 8 9 10 10 10 12 10 11 13 13 13 13 13 15 17 15 16 17 19 20 20 17 15 14
4 4 5 4 4 5 4 3 1 1 3 3 6 10 11 12 11 10 10 11 10 11 13 13 13 15 14 14 15 15 14 14 15 15 15 15 17 18 18 18 18 20 23 21 20 17 15
5 5 5 6 6 5 5 6 5 5 3 3 3 5 9 12 13 13 13 12 11 11 13 14 14 17 16 15 16 17 13 15 17 16 16 15 15 16 18 17 18 19 21 21 20 19 17
4 5 6 6 9 8 7 5 6 8 8 7 6 5 6 8 11 14 16 16 14 15 15 16 16 17 21 16 17 21 16 17 17 18 18 18 17 19 19 18 18 20 20 21 21 20 20
8 6 6 7 9 11 10 8 7 7 8 9 10 8 8 8 8 10 11 13 14 17 21 19 20 20 21 22 22 24 21 20 21 22 20 20 20 19 20 20 19 19 21 21 22 21 20
11 9 8 7 8 10 13 12 9 9 8 8 9 8 9 11 10 10 9 10 11 12 17 17 19 19 21 24 24 25 23 22 23 24 23 22 22 21 18 19 20 19 21 23 21 18 19
14 13 11 9 8 10 11 14 14 11 10 9 10 11 10 9 12 11 10 11 12 13 13 14 15 17 17 18 19 19 18 17 17 20 20 20 19 19 17 19 20 19 20 19 18 18 18
18 16 15 13 10 10 13 14 15 15 13 12 12 12 13 14 12 12 12 13 14 15 15 15 15 16 16 16 19 19 17 16 15 16 19 19 17 17 15 19 19 16 17 19 18 19 19
23 20 19 17 16 14 13 14 15 15 13 13 14 13 13 14 15 15 14 14 14 15 16 18 17 17 16 15 18 20 18 16 13 13 16 17 18 18 15 19 17 13 16 16 17 17 18
28 25 23 22 20 19 17 16 15 16 15 16 15 14 13 14 14 15 16 16 17 17 15 14 17 19 20 17 17 18 18 16 14 13 13 14 17 17 13 15 15 11 13 15 16 16 17
31 30 27 26 25 23 22 20 18 17 17 18 17 15 16 16 16 17 15 15 17 16 17 17 17 21 21 19 18 16 15 16 16 14 13 14 15 15 12 13 10 14 14 12 13 17 16
34 34 32 30 28 27 26 25 23 20 19 19 19 17 17 18 17 16 18 19 17 17 18 18 18 21 23 20 19 16 16 16 18 15 15 17 16 15 15 12 10 14 12 14 16 16 16
37 37 37 35 33 31 30 29 28 27 24 22 22 20 18 18 18 16 18 18 18 18 16 17 18 19 22 21 20 17 16 17 17 16 17 18 18 17 18 14 10 12 9 14 10 8 13
40 41 41 40 38 36 34 33 32 31 30 28 26 24 21 20 22 19 19 19 18 16 17 16 18 18 20 20 20 19 19 19 16 15 16 18 19 18 20 14 8 14 13 13 12 12 12
44 43 44 43 42 41 39 37 36 34 33 34 32 29 27 25 26 23 22 22 21 19 19 16 16 19 21 21 22 22 19 20 20 20 18 18 19 19 19 21 18 17 20 17 16 19 23
47 47 46 46 46 45 43 42 40 38 36 35 35 34 33 31 29 28 26 26 25 23 24 21 18 19 22 22 23 22 23 21 23 21 24 22 22 23 22 18 26 25 15 17 21 21 25
Wind_Direction
79 81 83 86 90 94 98 102 106 110 115 120 123 126 128 129 128 127 128 129 130 130 130 128 125 124 116 109 108 109 106 103 98 97 104 101 105 111 104 108 106 92 81 61 48 41 32
79 81 83 87 91 95 99 104 109 116 120 121 123 125 125 125 126 126 127 127 125 124 123 119 120 115 113 106 101 102 97 92 90 95 98 102 102 97 113 121 109 95 84 62 52 40 34
80 82 86 92 97 101 106 110 112 113 116 118 120 122 123 123 124 124 122 121 123 122 119 117 113 111 108 109 108 95 84 85 94 92 86 85 81 80 72 105 106 98 86 73 59 35 25
78 78 82 90 98 105 109 113 115 116 118 120 121 124 125 125 122 121 121 120 120 119 116 110 108 115 108 104 95 89 84 83 82 81 83 76 72 62 53 37 37 49 79 42 28 39 25
74 73 71 76 89 100 107 115 121 122 123 122 122 123 125 123 122 120 120 119 120 120 114 110 107 103 102 94 89 85 82 79 79 74 61 60 55 54 52 52 155 179 234 317 6 12 18
70 72 73 74 80 93 106 116 119 120 121 122 125 125 125 124 122 119 118 122 125 117 114 112 103 100 103 104 99 89 81 67 58 61 52 35 68 48 39 28 42 51 347 339 316 336 357
63 62 67 72 82 89 104 119 124 126 126 127 127 128 126 124 121 123 126 128 124 119 121 114 106 103 105 102 101 98 81 58 49 56 36 19 19 23 18 13 12 17 7 325 326 319 333
65 63 63 68 78 94 99 119 130 133 133 131 130 129 127 124 126 137 137 133 132 130 126 115 106 101 98 96 94 85 87 77 25 22 15 13 13 15 19 358 355 360 358 345 333 320 316
69 68 61 63 72 92 110 116 130 138 139 139 138 136 135 135 137 141 143 140 143 134 132 123 110 107 101 98 85 81 68 54 24 6 7 10 5 0 5 355 349 342 338 335 336 329 322
71 72 68 60 64 78 105 125 134 144 148 149 150 149 150 149 150 155 145 158 161 144 144 128 118 117 112 97 88 76 48 18 9 356 358 3 357 359 355 355 348 338 329 335 342 342 315
77 72 74 70 59 66 91 123 142 150 159 162 162 165 160 157 163 164 160 174 176 168 157 150 136 127 116 100 86 10 349 347 345 351 353 355 346 348 357 358 354 352 340 326 329 331 323
65 89 78 87 76 63 66 94 139 161 167 170 177 180 177 170 167 177 172 179 181 175 182 178 178 183 203 244 286 320 317 324 338 345 347 340 341 343 344 349 351 343 334 336 329 318 318
358 93 140 112 105 86 66 68 94 153 177 182 186 187 189 184 179 183 187 192 195 193 197 207 214 225 247 268 288 307 314 321 329 334 335 341 335 336 335 337 337 338 345 338 322 308 322
287 273 241 201 179 154 126 78 76 96 160 189 198 200 202 200 197 193 201 209 215 221 231 235 243 252 261 274 280 291 303 313 314 320 327 333 332 338 335 330 332 334 338 339 332 318 317
307 267 254 229 221 207 215 202 196 114 132 168 207 214 216 216 216 213 216 221 229 229 242 249 258 266 272 280 287 294 302 306 311 319 322 326 332 336 337 334 334 335 337 337 328 316 303
306 275 261 246 228 224 219 231 225 225 238 207 198 220 230 231 229 230 232 235 238 242 249 259 266 272 272 278 281 288 295 301 303 311 308 312 318 325 330 329 332 336 331 330 331 325 316
275 287 260 261 245 233 226 232 241 237 237 243 240 236 239 242 244 244 244 246 247 255 256 261 268 272 284 286 284 287 296 296 298 304 304 303 309 317 323 324 326 331 330 331 332 330 322
255 261 264 262 254 239 231 226 238 250 253 245 247 245 249 252 249 252 254 254 250 252 263 268 273 277 280 286 288 287 293 291 291 293 295 299 302 307 315 316 319 329 329 332 331 333 321
242 252 262 266 257 250 239 232 233 245 254 263 259 254 259 257 255 259 260 259 262 259 264 274 275 278 279 284 288 293 299 296 292 291 292 291 296 302 308 308 312 330 329 334 338 330 315
240 241 249 258 252 248 251 244 236 235 244 257 264 256 258 264 257 258 264 266 269 267 269 271 276 279 283 290 292 296 300 306 300 291 288 292 296 301 307 307 313 325 321 334 346 335 331
241 238 239 246 249 247 246 254 249 239 236 244 255 266 264 259 260 265 268 272 274 276 279 276 279 283 285 286 291 292 291 295 299 297 292 291 294 298 304 299 308 317 311 322 339 335 340
237 238 235 237 245 247 247 247 252 252 242 242 244 251 259 267 263 259 261 268 275 281 282 282 282 280 287 293 289 290 295 291 293 292 295 299 297 301 308 303 308 309 310 315 326 323 335
237 236 236 235 236 243 247 248 250 253 254 249 247 248 251 260 263 270 275 279 283 284 283 282 284 287 287 288 297 297 295 292 287 291 292 294 294 301 306 307 310 303 306 314 323 323 329
238 238 236 235 236 238 243 245 245 249 252 254 254 250 251 254 261 266 271 279 280 286 292 287 273 274 277 290 299 298 289 283 283 289 292 288 296 308 311 303 310 306 312 313 319 312 321
239 240 239 235 236 237 240 244 246 244 247 252 255 253 251 257 260 269 270 269 272 274 285 294 278 262 274 285 294 298 288 281 281 288 293 290 297 300 305 304 297 303 310 310 314 303 310
240 239 239 238 235 235 238 242 243 247 247 247 252 253 252 253 259 260 263 270 272 273 276 291 285 266 265 275 285 294 288 278 276 281 286 288 292 294 297 304 308 290 292 312 285 290 300
239 240 239 239 237 235 236 239 242 243 247 249 249 253 254 254 259 258 267 271 269 273 274 278 275 278 272 272 277 286 288 287 285 282 278 282 284 293 291 299 298 285 288 296 264 279 307
241 239 239 239 240 236 236 237 240 243 244 249 252 251 251 254 257 263 264 267 274 274 275 266 273 276 278 281 280 278 280 281 286 286 284 286 292 291 291 299 295 279 287 279 286 281 287
242 241 240 239 239 240 237 237 237 240 244 247 250 253 254 252 257 260 262 265 270 273 271 271 266 263 272 275 277 280 281 283 281 280 285 290 290 288 291 296 292 293 268 296 300 291 294
Height
5804 5803 5802 5802 5802 5802 5802 5802 5803 5803 5805 5806 5808 5809 5810 5811 5812 5814 5815 5818 5820 5823 5824 5826 5828 5830 5833 5833 5835 5835 5835 5835 5836 5836 5836 5835 5836 5836 5836 5836 5836 5835 5835 5835 5833 5832 5831
5807 5807 5807 5806 5806 5806 5806 5807 5807 5808 5809 5809 5810 5812 5813 5814 5816 5817 5820 5822 5824 5826 5828 5830 5832 5833 5835 5836 5837 5838 5836 5836 5836 5837 5838 5838 5838 5838 5838 5837 5837 5836 5836 5835 5834 5832 5831
5811 5810 5810 5809 5809 5809 5810 5810 5811 5811 5812 5813 5814 5815 5817 5818 5819 5821 5823 5825 5828 5830 5831 5833 5835 5836 5837 5838 5839 5839 5839 5838 5839 5839 5840 5841 5841 5840 5840 5839 5837 5837 5836 5836 5835 5833 5831
5814 5813 5812 5811 5811 5812 5812 5812 5813 5813 5815 5815 5817 5818 5820 5822 5823 5825 5828 5830 5832 5834 5835 5837 5838 5840 5840 5841 5841 5841 5842 5842 5842 5842 5842 5842 5841 5841 5840 5839 5837 5836 5836 5836 5835 5834 5832
5817 5816 5815 5813 5812 5813 5813 5815 5815 5816 5817 5819 5820 5822 5823 5826 5828 5830 5832 5834 5836 5838 5839 5840 5842 5842 5843 5843 5845 5845 5845 5845 5845 5844 5844 5843 5842 5841 5841 5839 5839 5838 5837 5835 5834 5833 5831
5821 5819 5818 5816 5815 5815 5815 5816 5818 5819 5820 5822 5824 5826 5828 5830 5832 5834 5836 5838 5840 5841 5842 5843 5845 5847 5846 5846 5847 5847 5847 5848 5847 5845 5845 5845 5845 5843 5841 5840 5838 5836 5835 5833 5832 5832 5829
5825 5824 5821 5820 5818 5818 5818 5819 5820 5822 5824 5826 5828 5830 5832 5834 5835 5837 5839 5842 5845 5845 5845 5846 5847 5848 5848 5849 5849 5847 5848 5848 5850 5849 5847 5845 5842 5841 5839 5837 5836 5834 5833 5831 5830 5829 5828
5828 5827 5826 5824 5822 5821 5822 5822 5823 5825 5827 5829 5832 5834 5836 5837 5839 5840 5841 5843 5846 5848 5848 5848 5849 5849 5850 5851 5851 5849 5850 5851 5851 5848 5846 5845 5843 5840 5838 5836 5835 5833 5831 5829 5828 5826 5824
5830 5829 5829 5828 5826 5825 5825 5826 5827 5828 5830 5832 5834 5836 5838 5840 5841 5844 5845 5846 5848 5849 5850 5850 5850 5851 5852 5852 5852 5852 5853 5852 5850 5849 5846 5844 5842 5839 5837 5836 5833 5831 5830 5828 5827 5823 5821
5833 5831 5830 5830 5830 5829 5828 5828 5829 5830 5832 5834 5836 5838 5840 5841 5844 5844 5846 5848 5850 5850 5852 5853 5852 5853 5853 5852 5853 5853 5852 5852 5849 5848 5846 5844 5842 5840 5838 5835 5833 5831 5828 5826 5824 5821 5819
5833 5833 5832 5831 5832 5832 5831 5831 5832 5832 5834 5836 5837 5840 5841 5842 5844 5845 5847 5849 5850 5851 5853 5854 5853 5854 5854 5854 5854 5853 5852 5850 5849 5847 5846 5844 5841 5839 5836 5834 5831 5829 5827 5824 5822 5820 5817
5833 5833 5833 5833 5833 5834 5834 5833 5833 5834 5835 5836 5838 5840 5841 5843 5844 5846 5847 5849 5851 5853 5852 5853 5853 5853 5853 5853 5853 5852 5851 5850 5849 5846 5844 5842 5840 5838 5835 5833 5830 5827 5825 5821 5819 5818 5816
5833 5833 5833 5834 5834 5835 5836 5836 5835 5835 5836 5837 5838 5839 5841 5843 5844 5845 5847 5849 5851 5851 5852 5853 5852 5852 5852 5851 5851 5850 5849 5849 5847 5846 5844 5841 5838 5836 5833 5831 5829 5825 5822 5820 5818 5815 5812
5833 5832 5833 5834 5834 5834 5835 5836 5837 5837 5837 5837 5838 5839 5840 5841 5843 5845 5846 5848 5849 5850 5850 5850 5851 5850 5850 5850 5849 5849 5849 5846 5845 5843 5841 5839 5837 5834 5832 5829 5826 5823 5820 5817 5813 5811 5809
5833 5832 5832 5833 5833 5833 5834 5835 5836 5837 5837 5837 5838 5839 5840 5841 5842 5844 5845 5845 5847 5847 5847 5848 5848 5848 5848 5848 5847 5846 5845 5844 5842 5840 5839 5836 5834 5831 5829 5826 5824 5820 5817 5815 5811 5808 5806
5831 5832 5831 5832 5832 5832 5832 5834 5835 5836 5837 5837 5837 5838 5838 5839 5840 5842 5843 5843 5844 5844 5844 5844 5845 5844 5845 5845 5844 5842 5842 5840 5837 5837 5835 5834 5832 5830 5827 5825 5822 5819 5815 5812 5808 5804 5801
5829 5830 5830 5830 5831 5831 5831 5831 5833 5834 5834 5835 5836 5836 5837 5837 5838 5839 5839 5840 5842 5841 5841 5841 5841 5841 5838 5840 5839 5836 5838 5836 5835 5833 5831 5830 5828 5827 5824 5822 5819 5817 5813 5809 5805 5802 5798
5827 5827 5828 5828 5829 5829 5830 5829 5830 5832 5833 5833 5833 5835 5835 5835 5837 5836 5837 5837 5838 5838 5837 5837 5837 5836 5835 5834 5833 5831 5833 5832 5830 5828 5827 5825 5823 5822 5820 5817 5815 5813 5809 5806 5802 5799 5795
5824 5825 5826 5826 5827 5827 5828 5828 5828 5829 5830 5831 5831 5832 5832 5833 5833 5834 5834 5834 5834 5835 5833 5834 5832 5832 5831 5829 5829 5827 5827 5826 5825 5823 5821 5820 5818 5817 5816 5815 5811 5809 5805 5802 5800 5797 5794
5820 5821 5823 5824 5824 5825 5825 5826 5826 5826 5827 5829 5830 5829 5830 5830 5830 5831 5831 5831 5831 5830 5830 5830 5829 5828 5827 5826 5825 5823 5822 5821 5819 5817 5815 5815 5814 5812 5811 5808 5806 5805 5802 5800 5798 5794 5791
5816 5817 5818 5820 5820 5821 5821 5823 5824 5823 5823 5824 5825 5827 5827 5827 5827 5827 5828 5827 5827 5826 5826 5826 5825 5824 5823 5822 5820 5819 5818 5817 5816 5814 5811 5810 5809 5808 5807 5804 5803 5802 5799 5797 5795 5791 5788
5810 5811 5813 5815 5817 5817 5817 5818 5819 5821 5820 5820 5820 5822 5822 5822 5823 5823 5823 5823 5823 5823 5823 5822 5821 5819 5819 5818 5816 5814 5813 5812 5812 5810 5808 5806 5804 5803 5804 5800 5799 5798 5795 5793 5791 5789 5786
5804 5805 5807 5809 5810 5812 5813 5814 5815 5816 5818 5816 5816 5817 5817 5818 5818 5819 5819 5818 5818 5817 5818 5819 5818 5816 5814 5813 5812 5810 5808 5807 5807 5806 5804 5802 5800 5799 5799 5797 5795 5795 5793 5791 5788 5785 5783
5796 5799 5800 5803 5804 5806 5807 5808 5809 5811 5812 5813 5812 5812 5812 5813 5814 5813 5814 5815 5813 5813 5813 5812 5812 5810 5810 5809 5808 5806 5804 5802 5802 5801 5800 5799 5797 5795 5795 5793 5792 5790 5789 5788 5785 5782 5780
5787 5791 5793 5794 5797 5799 5801 5802 5804 5804 5806 5807 5807 5808 5808 5807 5807 5809 5809 5808 5808 5808 5807 5807 5806 5804 5803 5804 5803 5802 5800 5799 5797 5797 5796 5793 5793 5791 5789 5788 5789 5786 5785 5783 5781 5779 5776
5778 5781 5784 5786 5788 5790 5793 5795 5797 5799 5799 5800 5801 5802 5803 5803 5803 5803 5803 5803 5803 5802 5802 5800 5800 5800 5800 5800 5799 5798 5796 5794 5794 5793 5791 5789 5788 5787 5785 5784 5783 5782 5781 5779 5776 5775 5771
5766 5770 5774 5777 5779 5781 5783 5786 5788 5790 5792 5792 5793 5796 5797 5797 5797 5797 5797 5796 5797 5797 5797 5796 5792 5793 5794 5795 5794 5794 5793 5790 5789 5789 5788 5786 5784 5783 5779 5778 5780 5775 5774 5773 5771 5772 5767
5755 5758 5762 5766 5769 5770 5772 5775 5778 5781 5783 5784 5787 5787 5789 5790 5789 5791 5791 5791 5790 5791 5790 5791 5791 5788 5788 5788 5789 5787 5788 5786 5784 5784 5783 5782 5780 5779 5777 5775 5774 5772 5770 5768 5766 5764 5762
5743 5746 5750 5754 5757 5760 5761 5764 5766 5769 5773 5775 5777 5779 5781 5782 5783 5783 5784 5783 5783 5784 5783 5784 5784 5783 5782 5781 5781 5782 5782 5782 5780 5779 5776 5776 5775 5773 5772 5772 5766 5764 5765 5764 5763 5762 5759